Regional Weather Roundup
Issued by NWS

Home | Current Version | Previous Version | Graphics & Text | Print | Product List | Glossary Off
Versions: 1 2 3 4 5 6 7 8 9 10 11 12 13 14 15 16 17 18 19 20 21 22 23 24 25 26 27 28 29 30 31 32 33 34 35 36 37 38 39 40 41 42 43 44 45 46 47 48 49 50

000
ASUS43 KMPX 240601
RWRMN
WEATHER ROUNDUP FOR MINNESOTA
NATIONAL WEATHER SERVICE TWIN CITIES/CHANHASSEN MN
100 AM CDT MON APR 24 2017


NOTE: "FAIR" INDICATES FEW OR NO CLOUDS BELOW 12,000 FEET WITH NO
SIGNIFICANT WEATHER AND/OR OBSTRUCTIONS TO VISIBILITY. N/A MEANS
CURRENT SKY AND/OR WEATHER CONDITIONS ARE NOT AVAILABLE.

MNZ060>063-068>070-240700-
   Twin Cities Metro

CITY           SKY/WX    TMP DP  RH WIND       PRES   REMARKS
TWIN CITIES    CLOUDY    51  39  63 NE5       29.87F
6HR MIN TEMP:  51; 6HR MAX TEMP:  68;

ST PAUL        CLOUDY    50  41  71 NE6       29.89S
CRYSTAL        CLOUDY    46  37  71 NE7       29.87F
LAKEVILLE      CLOUDY    55  34  44 S10       29.86S
EDEN PRAIRIE   CLOUDY    50  40  68 NE8       29.85F
6HR MIN TEMP:  50; 6HR MAX TEMP:  71;

SOUTH ST PAUL  CLOUDY    51  40  66 CALM      29.87S
LAKE ELMO      FAIR      46  41  81 E7        29.89F
$$
MNZ001>005-007-008-013>017-022>024-027-028-240700-
   Northwest Minnesota

CITY           SKY/WX    TMP DP  RH WIND       PRES   REMARKS
BEMIDJI        MOCLDY    33  30  88 E13       29.92F WCI  24
HALLOCK        CLOUDY    36  19  51 E9        29.97F
ROSEAU         CLOUDY    36  23  60 E8        29.99F
WARROAD        CLOUDY    36  19  51 E20       30.00F
THIEF RVR FALL MIX PCPN  32  29  88 E16G24    29.93S WCI  21
CROOKSTON      CLOUDY    36  30  80 E16G22    29.91S
FOSSTON        CLOUDY    34  28  80 E15G24    29.88F WCI  24
DETROIT LAKES  CLOUDY    36  32  87 SE15G24   29.83F
MOORHEAD       CLOUDY    39  34  81 E15G22    29.80F
PARK RAPIDS    CLOUDY    34  26  72 E14G22    29.88F WCI  25
MAHNOMEN       CLOUDY    35  31  85 E14G23    29.84F WCI  25
$$
MNZ006-009>011-018-025>026-240700-
   North Central Minnesota

CITY           SKY/WX    TMP DP  RH WIND       PRES   REMARKS
BAUDETTE       CLOUDY    33  23  66 SE6       30.01F WCI  28
FLAG ISLAND    CLOUDY    34  16  47 E8        30.02F WCI  27
INTL FALLS     CLOUDY    33  25  72 E8        30.03F WCI  26
6HR MIN TEMP:  32; 6HR MAX TEMP:  37;

WASKISH        CLOUDY    32  30  93 E9        29.99R WCI  24
BIG FORK       MIX PCPN  34  30  86 E8G16     29.98F WCI  27
LONGVILLE      CLOUDY    32  27  80 E7        29.94F WCI  26
GRAND RAPIDS   CLOUDY    32  25  75 E8G20     29.99F WCI  25
CRANE LAKE     LGT RAIN  30  28  93 CALM      30.07F
ORR            LGT SNOW  30  28  93 MISG      30.00F
COOK           LGT SNOW  30  28  93 E5        30.02F WCI  25
WALKER         MOCLDY    33  28  80 E16G25    29.92F WCI  22
$$
MNZ012-019>021-037-240700-
   Northeast Minnesota

CITY           SKY/WX    TMP DP  RH WIND       PRES   REMARKS
DULUTH         CLOUDY    33  24  69 E18G26    30.00F WCI  22
6HR MIN TEMP:  31; 6HR MAX TEMP:  33;

ELY            LGT SNOW  30  28  93 E6        30.05F WCI  24
HIBBING        CLOUDY    30  26  85 E13       30.00F WCI  20
EVELETH        CLOUDY    32  26  76 E12       30.03F WCI  23
DULUTH HARBOR  CLOUDY    37  32  81 NE26G33   30.04F
TWO HARBORS    CLOUDY    36  28  75 E13G20    30.03F
SILVER BAY     DRIZZLE   32  30  93 NE12G20   30.06F WCI  23
GRAND MARAIS     N/A     30  29  96 E14       30.16S WCI  19
G MARAIS ARPRT MIX PCPN  25  19  80 E8        30.10F WCI  16
$$
MNZ029>031-032-039>041-046>048-054>057-064-240700-
   West Central Minnesota

CITY           SKY/WX    TMP DP  RH WIND       PRES   REMARKS
FERGUS FALLS   CLOUDY    37  32  81 E16G26    29.77F
WHEATON        CLOUDY    41  36  81 E16       29.76F
MORRIS         CLOUDY    41  36  81 E28       29.75F
ALEXANDRIA     PTCLDY    36  32  85 E18G25    29.83F
ELBOW LAKE     FAIR      38  34  84 SE28G35   29.77F
WADENA         CLOUDY    34  27  75 E16G22    29.86F WCI  23
GLENWOOD       PTCLDY    36  34  93 E21       29.82F
APPLETON       CLOUDY    45  37  76 E14       29.75S
BENSON         PTCLDY    43  34  70 SE15G23   29.79F
ORTONVILLE     CLOUDY    45  37  76 E15       29.73F
MADISON        MOCLDY    52  39  62 E9        29.73F
WILLMAR        FAIR      45  37  76 E16       29.81F
$$
MNZ033>034-036-042>043-049>051-058-059-240700-
   Central Minnesota

CITY           SKY/WX    TMP DP  RH WIND       PRES   REMARKS
ST CLOUD       CLOUDY    37  32  82 E9G16     29.88F
6HR MIN TEMP:  37; 6HR MAX TEMP:  52;

SAUK CENTRE    FAIR      35  32  87 E14G22    29.85F WCI  26
PAYNESVILLE    PTCLDY    39  35  83 E9        29.85F
AITKIN         PTCLDY    34  23  64 E12G17    29.93F WCI  25
PINE RIVER     CLOUDY    32  27  80 E10       29.96F WCI  24
BRAINERD       CLOUDY    33  25  72 E12G20    29.92F WCI  24
STAPLES        CLOUDY    34  27  75 E8        29.88F WCI  27
LONG PRAIRIE   FAIR      34  30  86 NE13G20   29.87F WCI  25
LITTLE FALLS   CLOUDY    34  30  86 E5        29.89F WCI  30
LITCHFIELD     CLOUDY    43  37  81 E10       29.85F
BUFFALO        PTCLDY    40  34  79 NE8       29.88S
MAPLE LAKE     PTCLDY    40  36  84 E9        29.88F
HUTCHINSON     CLOUDY    46  40  79 NE8       29.85S
$$
MNZ037-044-045-052-053-240700-
   East Central Minnesota

CITY           SKY/WX    TMP DP  RH WIND       PRES   REMARKS
PRINCETON      PTCLDY    37  32  81 NE9       29.90F
MORA           PTCLDY    34  28  80 E6        29.94F WCI  29
CAMBRIDGE      CLOUDY    39  30  70 NE5       29.89S
RUSH CITY      PTCLDY    37  32  81 NE7       29.92F
MOOSE LAKE     CLOUDY    32  25  74 NE8G16    29.96F WCI  25
HINCKLEY       FAIR      36  30  80 NE8       29.94F
CLOQUET        CLOUDY    34  23  64 E13G24    29.98F WCI  25
MCGREGOR       PTCLDY    32  28  86 E9        29.95F WCI  24
$$
MNZ071>073-080-081-089-090-097-098-240700-
   Southwest Minnesota

CITY           SKY/WX    TMP DP  RH WIND       PRES   REMARKS
MONTEVIDEO     MOCLDY    52  36  54 SE8       29.76F
GRANITE FALLS  CLOUDY    57  34  42 SE17      29.76F
CANBY          CLOUDY    61  29  29 SW20G29   29.71F
MARSHALL       PTCLDY    58  31  35 S15       29.75F
REDWOOD FALLS  CLOUDY    54  33  45 S15       29.79F
OLIVIA         MOCLDY    55  32  41 S9        29.79S
PIPESTONE      CLOUDY    54  28  37 S15       29.77F
WINDOM         CLOUDY    55  30  38 S13       29.83F
WORTHINGTON    CLOUDY    54  31  41 S17       29.82F
JACKSON        MOCLDY    52  32  46 S15       29.86S
TRACY          CLOUDY    58  33  38 S12       29.77F
SLAYTON        MOCLDY    55  31  39 S14G20    29.81F
$$
MNZ065>067-074>077-082>085-091>093-240700-
   South Central Minnesota

CITY           SKY/WX    TMP DP  RH WIND       PRES   REMARKS
MANKATO        PTCLDY    56  32  40 S12       29.86S
NEW ULM        MOCLDY    55  32  41 S14       29.82F
ST JAMES       CLOUDY    55  34  44 S14       29.85F
FAIRMONT       CLOUDY    51  34  52 S12       29.87S
GLENCOE        CLOUDY    48  43  81 CALM      29.84S
FARIBAULT      PTCLDY    55  34  44 S7        29.88S
OWATONNA       PTCLDY    55  30  38 S12       29.88F
WASECA         CLOUDY    55  32  41 S16       29.89S
ALBERT LEA     CLOUDY    55  30  38 S8        29.90F
$$
MNZ078>079-086>088-094>096-240700-
   Southeast Minnesota

CITY           SKY/WX    TMP DP  RH WIND       PRES   REMARKS
ROCHESTER      CLEAR     50  36  58 S10       29.92F
6HR MIN TEMP:  49; 6HR MAX TEMP:  67;

RED WING       PTCLDY    61  28  29 S5        29.88S
STANTON        CLOUDY    53  35  50 SW9       29.86S
DODGE CENTER   CLOUDY    54  34  47 S15       29.90F
WINONA         CLEAR     59  32  36 SW3       29.93S
AUSTIN         CLOUDY    48  36  61 S7        29.92S
PRESTON        CLEAR     52  33  48 S7        29.94S
$$
ABBREVIATIONS USED IN REMARKS
   TC - TEMPERATURES IN CELSIUS
  WCI - WIND CHILL INDEX
   HX - HEAT INDEX
  VSB - VISIBILITY
$$




USA.gov is the U.S. government's official web portal to all federal, state and local government web resources and services.